CAPE
4 6 12 14 10 12 13 11 9 11 6 7 13 16 17 76 40 0 1 9 0 0 0 0 2 1 0 0 0 1 23 6 5 8 2 6 5 8 1 0 0 0 0 0 0
13 10 11 10 13 19 14 8 6 8 12 11 11 18 34 17 0 1 0 34 6 5 2 2 6 0 1 4 6 1 10 2 0 0 3 7 19 28 24 18 6 0 0 0 70
13 12 13 12 13 15 13 15 15 12 27 21 24 22 36 2 4 3 30 0 19 0 1 1 0 0 7 10 16 23 29 20 21 30 32 21 5 3 43 35 25 21 2 0 84
13 10 9 13 13 15 25 18 16 25 31 24 16 20 35 7 1 0 71 2 0 0 0 0 0 0 1 7 5 19 20 35 18 10 3 7 32 35 24 16 22 35 38 11 6
10 9 9 12 11 18 24 31 27 28 20 13 11 29 0 12 7 0 0 0 0 0 0 0 0 1 4 5 2 10 11 3 0 0 0 0 5 17 32 3 4 24 61 60 26
6 8 10 10 13 18 28 26 17 23 19 0 9 3 13 1 0 0 0 0 0 0 0 0 0 0 4 2 9 12 7 6 1 0 5 11 21 19 0 4 29 19 35 123 93
6 8 11 16 20 18 19 26 17 7 11 0 32 3 12 0 0 0 0 0 0 0 0 0 0 0 5 11 3 4 8 0 0 0 8 25 0 7 13 3 5 21 48 52 34
5 9 7 10 21 21 9 1 1 0 0 0 0 7 7 0 0 0 0 0 0 0 0 0 0 3 7 9 3 5 3 6 3 7 7 36 4 1 0 3 9 20 9 37 25
4 7 8 8 0 0 0 0 0 0 0 0 2 5 3 0 0 0 0 0 0 0 0 0 0 5 5 6 1 6 9 5 2 14 24 17 5 0 0 0 0 1 3 0 7
2 4 6 5 0 0 0 0 0 0 0 0 0 0 0 0 0 0 0 0 0 0 0 0 2 2 4 3 0 1 0 1 14 12 18 0 4 0 0 0 0 0 0 0 0
2 0 3 4 0 0 0 0 0 0 0 0 0 0 0 0 0 0 0 0 0 0 0 0 0 0 0 0 0 0 0 4 3 8 6 0 0 0 0 0 0 4 0 0 5
2 0 0 1 0 0 0 0 4 3 0 0 0 0 0 0 0 0 0 0 0 0 0 0 0 0 0 0 0 0 0 1 0 0 0 0 0 0 0 8 8 0 0 0 0
1 0 0 0 0 0 0 2 1 0 0 0 0 0 0 0 0 0 0 0 0 0 0 0 0 0 0 0 0 0 0 0 0 0 0 0 0 0 0 0 0 0 3 6 1
0 0 0 0 0 0 0 0 0 0 0 0 0 0 0 0 0 0 0 0 0 0 0 0 0 0 0 0 0 0 0 0 0 0 0 0 0 0 0 0 0 2 36 18 3
0 0 0 0 0 0 0 0 0 0 0 0 0 0 0 0 0 0 0 0 0 0 0 0 0 0 0 0 0 0 0 0 0 0 0 0 0 0 0 0 0 0 0 0 0
0 0 0 0 0 0 0 0 0 1 0 0 0 0 0 0 0 0 0 0 0 0 0 0 0 0 0 0 0 0 0 0 0 0 1 0 0 0 0 0 0 0 0 0 0
0 0 0 0 0 0 0 0 3 0 0 0 0 0 0 0 0 0 0 0 0 0 0 0 0 0 0 0 0 0 0 1 5 35 9 0 0 0 0 0 0 0 0 0 0
0 0 0 0 0 0 0 0 1 0 0 0 0 0 0 0 0 0 0 0 0 0 0 0 0 0 0 0 0 0 0 1 5 17 6 0 0 1 0 0 0 0 0 0 0
0 0 0 0 0 0 0 7 0 0 0 0 0 0 0 0 0 0 0 0 0 0 0 0 0 0 0 0 0 0 6 0 0 1 9 2 0 0 0 10 0 0 0 0 0
0 0 0 0 0 0 3 0 0 0 0 0 0 0 0 0 0 0 0 0 0 0 0 0 2 0 0 0 0 0 0 16 39 9 15 4 0 0 0 4 0 0 0 0 0
0 0 0 0 0 0 7 0 0 0 0 0 0 0 0 0 0 0 0 0 0 0 0 0 1 0 0 0 0 5 11 1 4 7 18 7 2 0 0 0 0 0 0 0 0
0 2 1 0 2 1 0 0 0 0 0 0 0 0 0 0 1 0 0 0 0 0 0 0 1 8 0 0 0 0 0 1 17 0 2 3 2 0 0 0 0 0 0 0 0
0 1 0 1 4 0 0 0 0 0 0 0 0 0 0 0 1 2 0 0 0 0 0 0 11 14 5 0 0 0 0 0 0 0 1 32 2 0 0 0 0 0 0 0 0
3 1 2 9 3 0 0 0 0 0 0 0 0 0 4 7 4 3 2 0 0 0 0 4 18 0 13 29 0 0 0 0 1 30 23 12 0 0 0 0 0 0 0 0 0
3 0 0 2 2 2 0 0 0 0 0 0 2 3 2 6 6 4 2 2 0 0 3 31 37 17 0 0 0 0 2 0 0 0 20 0 0 0 0 0 0 0 0 0 0
0 0 1 0 0 2 1 1 0 0 0 0 5 0 6 11 6 14 9 10 8 1 0 18 28 26 47 2 18 3 0 0 0 0 7 0 0 0 0 0 0 0 0 0 0
0 0 0 0 5 3 0 0 0 0 0 0 0 9 10 8 10 14 21 27 29 15 6 23 29 29 32 16 2 18 5 0 1 0 0 0 0 0 0 0 0 0 0 0 0
CIN
0 0 0 0 0 0 0 0 0 0 0 0 0 -2 -1 0 -4 0 -7 -15 0 0 0 0 0 0 0 0 0 0 0 0 0 0 0 0 0 0 -1 0 0 0 0 0 0
0 0 0 0 0 0 0 0 0 0 0 0 0 0 0 -15 -9 -28 0 0 -1 -6 0 0 0 0 -9 -13 -2 0 0 0 0 0 0 0 0 0 0 0 0 0 0 0 -43
0 0 0 0 0 0 0 -1 -1 -1 -1 -1 -1 0 -2 -24 -11 0 0 0 -4 0 0 -27 0 0 0 -1 -1 0 0 0 0 0 0 0 0 -1 0 0 0 0 0 0 -27
0 0 0 0 0 0 -1 -1 0 0 0 -2 -1 -1 -5 -8 0 0 -1 -59 0 0 0 0 0 0 0 0 -1 -3 -1 0 0 -1 -4 0 0 0 0 0 0 0 0 0 0
0 0 0 0 0 0 0 0 0 0 0 -1 -2 -4 -11 0 0 0 0 -13 0 0 0 0 0 0 0 0 0 0 0 -2 0 0 0 0 0 0 0 0 -1 -1 -2 0 0
0 0 0 0 0 0 0 0 -1 -2 -2 0 0 -7 -5 0 0 0 0 0 0 0 0 0 0 0 0 0 0 0 -1 0 0 0 0 0 0 0 0 -72 0 0 0 0 0
0 0 0 0 0 0 0 0 0 -1 -4 0 -3 -2 -1 0 0 0 0 0 0 0 0 0 0 0 -1 0 -1 0 0 0 0 0 0 -1 0 0 -61 -6 0 0 0 -1 0
0 0 0 0 0 0 0 0 0 0 0 0 -9 -11 0 0 0 0 0 0 0 0 0 0 0 0 0 0 0 0 0 0 0 0 0 0 0 0 -1 0 0 0 -2 -1 0
0 0 0 0 0 0 0 0 0 0 0 0 -4 -4 0 0 0 0 0 0 0 0 0 0 0 0 0 0 0 -3 0 0 0 0 0 -3 0 0 0 0 0 0 0 -2 -1
0 0 0 0 0 0 0 0 0 0 0 0 0 0 0 0 0 0 0 0 0 0 0 0 0 0 0 0 0 0 0 0 0 0 0 0 0 0 0 -1 0 0 0 0 0
0 0 0 0 0 0 0 0 0 0 0 0 0 0 0 0 0 0 0 0 0 0 0 0 0 0 0 0 0 0 0 0 0 0 0 0 0 0 0 0 0 0 0 0 0
0 0 0 0 0 0 0 0 0 0 0 0 0 0 0 0 0 0 0 0 0 0 0 0 0 0 0 0 0 0 0 0 0 0 0 0 0 0 0 0 0 0 0 0 0
0 0 0 0 0 0 0 0 0 0 0 0 0 0 0 0 0 0 0 0 0 0 0 0 0 0 0 0 0 0 0 0 0 0 0 0 0 0 0 0 0 -1 0 0 -1
0 0 0 0 0 0 0 0 0 0 0 0 0 0 0 0 0 0 0 0 0 0 0 0 0 0 0 0 0 0 0 0 0 0 0 0 0 0 0 0 0 -7 -12 -3 0
0 0 0 0 0 0 0 0 0 0 0 0 0 0 0 0 0 0 0 0 0 0 0 0 0 0 0 0 0 0 0 0 0 0 0 0 0 0 0 0 0 0 0 0 0
0 0 0 0 0 0 0 0 0 0 0 0 0 0 0 0 0 0 0 0 0 0 0 0 0 0 0 0 0 0 0 0 0 0 -1 0 0 0 0 0 0 0 0 0 0
0 0 0 0 0 0 0 0 0 0 0 0 0 0 0 0 0 0 0 0 0 0 0 0 0 0 0 0 0 0 0 0 0 0 0 0 0 0 0 0 0 0 0 0 0
0 0 0 0 0 0 0 0 0 0 0 0 0 0 0 0 0 0 0 0 0 0 0 0 0 0 0 0 0 0 0 0 0 0 0 0 0 0 0 0 0 0 0 0 0
0 0 0 0 0 0 0 0 0 0 0 0 0 0 0 0 0 0 0 0 0 0 0 0 0 0 0 0 0 0 0 0 0 0 0 -1 0 0 0 -23 0 0 0 0 0
0 0 0 0 0 0 0 0 0 0 0 0 0 0 0 0 0 0 0 0 0 0 0 0 0 0 0 0 0 0 0 0 0 0 0 0 0 0 0 -3 0 0 0 0 0
0 0 0 0 0 0 0 0 0 0 0 0 0 0 0 0 0 0 0 0 0 0 0 0 0 0 0 0 0 -1 -1 -2 -1 0 0 0 0 0 0 0 0 0 0 0 0
0 0 0 0 0 0 0 0 0 0 0 0 0 0 0 0 0 0 0 0 0 0 0 -3 -8 0 0 0 0 0 0 -2 0 0 0 0 0 0 0 0 0 0 0 0 0
0 0 0 0 0 0 0 0 0 0 0 0 0 0 0 0 0 0 0 0 0 0 0 0 -1 0 -2 0 0 0 0 0 0 0 0 0 0 0 0 0 0 0 0 0 0
0 0 0 0 0 0 0 0 0 0 0 0 0 0 0 0 0 0 0 0 0 0 0 -1 0 0 0 -1 -5 0 0 0 0 0 0 0 0 0 0 0 0 0 0 0 0
0 0 0 0 0 0 0 0 0 0 0 0 0 0 0 0 0 0 0 0 0 0 0 0 0 0 0 0 -1 0 -1 0 0 0 0 0 0 0 0 0 0 0 0 0 0
0 0 0 0 0 0 0 0 0 0 0 0 0 0 0 0 0 0 -1 0 0 0 0 -1 0 0 0 -7 0 0 0 0 0 0 0 0 0 0 0 0 0 0 0 0 0
0 0 0 0 0 0 0 0 0 0 0 0 0 0 0 0 0 0 0 0 0 -1 -4 0 0 0 0 -1 -3 0 0 0 -20 0 0 0 0 0 0 -1 0 0 0 0 0
Wind_Speed
21 20 20 20 19 18 17 17 17 14 15 16 15 15 14 13 6 4 5 8 6 2 2 1 3 1 2 3 6 5 9 14 20 21 24 19 25 21 19 25 21 17 18 23 10
20 20 20 20 19 18 18 17 16 17 16 15 15 14 12 3 2 5 7 8 9 5 4 3 3 1 4 3 4 8 12 18 19 22 25 26 26 23 26 26 26 18 21 10 6
20 20 20 20 20 19 18 16 15 15 15 13 14 12 6 5 4 6 10 8 6 5 3 2 5 5 6 7 7 7 13 20 22 24 24 27 28 26 25 31 26 26 24 15 9
20 20 21 21 21 20 17 16 15 15 14 14 13 11 4 5 1 5 11 14 13 10 9 0 0 2 4 6 4 9 13 20 27 22 20 22 25 28 31 32 25 27 23 22 15
21 21 22 22 21 19 16 14 13 14 11 13 14 5 3 4 4 3 6 6 6 5 7 4 6 4 5 3 9 17 18 11 13 20 19 19 22 26 31 31 30 24 22 27 21
22 22 22 22 19 17 14 12 12 9 10 12 16 10 3 3 5 2 3 1 4 3 4 4 4 4 7 7 8 9 15 21 24 25 23 25 22 28 31 24 29 28 27 21 19
22 23 22 21 18 15 13 11 11 7 9 14 14 6 4 7 3 3 1 1 1 2 4 1 4 4 2 5 5 11 17 20 20 15 14 12 20 16 23 10 14 28 23 24 25
22 22 24 23 18 14 10 10 8 6 7 6 2 3 5 1 2 7 3 6 5 4 3 1 3 2 3 3 6 9 8 10 11 12 11 9 18 15 9 9 16 19 19 23 24
21 21 21 21 20 17 14 9 5 3 5 3 1 2 6 3 1 3 2 2 5 4 2 5 1 2 2 6 7 6 10 17 18 17 9 4 20 15 19 19 17 14 17 16 18
21 21 21 19 20 17 11 6 4 1 1 3 3 5 2 3 3 4 1 1 2 4 4 1 3 1 2 2 7 14 17 13 18 14 17 21 22 21 17 17 18 17 16 19 20
20 22 20 18 15 16 5 1 1 2 8 6 3 3 2 3 2 2 1 3 2 3 2 2 6 3 4 4 11 13 14 16 18 18 17 19 24 23 20 16 17 19 16 16 18
19 21 22 16 7 16 7 6 5 3 2 2 1 1 0 2 2 3 3 3 1 1 1 5 6 2 4 6 12 10 13 15 15 12 17 19 25 19 14 15 15 12 13 13 17
18 21 22 20 6 8 14 8 5 4 3 1 1 1 2 2 2 1 3 2 2 3 4 8 5 4 6 10 13 13 12 14 16 22 19 13 10 13 13 16 15 14 9 9 9
15 19 20 16 2 2 5 5 6 2 2 4 2 2 2 2 2 1 3 3 3 5 6 7 1 5 11 13 9 14 5 11 16 14 11 12 8 5 12 15 17 18 17 16 17
13 16 14 13 2 3 5 7 5 4 2 5 3 3 2 3 5 4 2 3 7 6 5 3 8 10 11 8 6 8 10 12 14 14 13 5 6 5 9 14 14 15 16 17 18
9 12 10 3 2 3 7 6 4 2 1 3 1 1 4 1 1 2 3 4 3 6 7 15 5 6 3 8 8 9 10 13 7 6 6 3 4 7 6 11 14 15 16 17 19
7 6 4 2 3 8 6 3 1 1 2 2 1 2 4 2 1 1 3 5 5 5 3 7 5 2 3 7 5 5 8 5 4 5 8 1 9 12 2 8 12 17 19 18 17
5 3 3 2 5 7 2 1 0 2 2 2 2 4 3 2 1 3 5 5 2 5 5 5 3 3 1 3 6 8 4 4 7 8 12 13 9 3 2 5 8 14 17 20 18
2 2 1 3 6 4 2 0 2 1 2 4 3 3 2 2 4 5 3 5 2 4 3 4 6 2 5 3 3 3 6 2 7 7 8 5 6 9 7 8 13 19 21 20 20
3 1 2 7 6 2 1 1 1 0 1 2 3 1 3 1 4 2 3 3 2 3 2 1 8 3 2 4 6 8 3 5 4 5 9 6 10 11 10 11 16 19 21 20 19
1 2 2 7 2 1 1 2 3 1 4 4 3 3 4 3 2 3 4 3 4 4 3 3 5 2 4 6 8 6 7 2 3 5 7 9 6 9 13 6 12 16 18 18 17
2 3 4 5 1 1 2 2 2 3 3 5 4 5 6 4 5 5 6 5 2 3 4 4 2 7 11 2 3 5 4 5 7 5 5 6 12 12 2 7 14 14 16 14 15
0 3 2 3 2 1 1 3 4 4 5 4 6 9 4 5 5 8 6 3 5 5 4 5 5 6 5 4 3 6 8 5 1 2 14 12 12 9 9 17 14 16 13 11 15
2 2 0 2 2 0 2 3 4 4 6 5 4 4 5 8 10 5 6 4 4 7 9 6 7 12 13 14 2 5 7 12 10 8 14 18 22 27 18 18 15 10 11 11 13
2 3 1 2 4 4 3 2 4 5 5 6 4 12 7 5 6 10 12 12 11 9 12 5 10 14 18 22 13 15 14 14 15 21 16 26 24 22 20 17 13 12 12 13 14
5 4 2 1 2 6 6 6 8 5 4 6 10 7 10 10 11 13 8 6 8 3 4 4 12 14 15 19 17 21 22 23 21 24 22 25 28 21 17 9 10 11 11 13 14
2 1 4 4 5 6 7 8 9 6 10 12 8 9 11 14 16 16 15 15 15 8 7 6 6 6 17 12 9 15 20 24 23 19 16 17 19 16 11 11 9 10 12 14 15
Wind_Direction
344 340 337 337 334 333 333 327 326 327 326 322 321 319 311 309 291 118 219 243 174 164 232 289 254 162 214 230 232 232 246 261 264 265 275 272 274 263 271 275 265 266 271 275 334
342 340 335 333 330 326 324 325 323 321 320 319 319 317 314 175 187 255 317 232 189 205 235 334 315 262 247 240 216 229 252 271 280 279 279 278 272 270 271 265 262 265 259 246 281
343 338 334 329 324 322 322 322 322 317 314 322 316 323 297 192 252 44 33 95 115 62 56 321 314 254 255 255 235 234 260 290 290 290 289 286 280 276 270 264 267 264 265 259 223
341 337 333 328 323 320 319 315 321 316 328 335 324 320 160 215 313 59 58 74 75 72 59 48 16 232 224 224 236 289 272 282 293 301 310 297 292 283 274 267 272 280 269 264 264
343 339 336 332 327 321 313 314 316 325 331 341 332 169 186 204 93 82 65 84 85 107 139 177 231 226 248 302 301 264 283 313 297 291 285 284 282 289 280 275 273 269 281 257 259
347 343 341 337 334 326 322 318 320 335 323 329 304 162 211 159 124 87 60 129 179 187 177 221 233 240 284 262 271 312 294 288 284 282 284 278 288 267 254 270 270 259 250 260 251
351 350 347 343 342 342 334 332 334 339 341 335 123 168 163 71 31 335 252 41 237 226 142 190 200 222 67 279 310 282 290 293 286 294 279 332 287 281 280 319 296 263 258 251 252
354 356 356 354 347 346 350 336 334 343 5 354 360 248 77 37 88 46 100 93 108 126 117 107 172 269 228 284 278 300 282 302 313 337 323 333 288 299 307 313 290 291 284 245 261
354 355 356 356 352 343 340 341 358 3 16 334 220 277 97 146 147 24 6 49 136 125 130 79 181 340 209 314 293 180 309 312 313 312 299 273 288 288 286 284 259 260 264 278 260
356 355 354 356 349 344 343 355 357 336 96 91 92 164 129 9 332 342 34 240 198 165 177 169 100 3 256 259 323 318 313 311 309 318 316 300 291 296 297 285 279 271 250 252 249
356 355 351 349 354 357 352 259 287 146 39 31 24 43 66 349 228 116 20 174 172 200 351 59 261 302 8 255 290 300 296 298 303 319 308 300 298 303 305 289 278 281 268 269 245
356 352 349 350 36 16 34 64 56 334 326 36 44 139 351 349 229 137 213 222 233 33 324 233 259 344 301 287 304 302 300 306 310 308 315 307 306 318 353 359 353 352 313 307 305
356 353 349 343 136 52 71 61 348 330 274 95 346 304 53 271 323 36 222 130 260 239 269 295 310 292 277 299 303 303 293 299 310 317 302 324 295 13 20 34 17 14 350 337 322
354 356 352 346 126 17 61 359 347 305 239 156 177 123 165 275 215 239 219 292 221 299 309 282 236 265 301 296 294 298 347 302 306 318 318 325 301 328 9 21 22 11 7 2 2
350 356 358 20 44 51 342 326 318 210 257 132 144 69 299 277 337 137 170 176 271 283 264 310 286 300 298 308 301 288 324 300 300 291 297 295 256 289 353 4 5 11 8 3 1
345 358 352 37 58 30 320 304 196 211 263 160 114 345 317 175 206 329 221 213 298 277 243 270 292 276 281 289 281 309 297 286 274 278 250 251 325 288 2 349 352 2 359 357 360
348 7 30 338 7 331 314 218 284 226 126 146 299 351 315 281 276 299 277 253 275 285 269 296 253 254 259 277 210 275 306 300 248 247 281 244 293 278 354 3 352 350 354 355 355
47 23 36 54 331 327 275 241 103 43 301 18 275 276 275 349 127 305 273 285 185 245 288 320 247 201 120 287 308 307 275 281 286 295 301 302 263 332 224 290 341 346 350 351 350
74 20 65 11 340 314 285 40 305 310 15 322 264 265 159 166 307 312 259 298 286 202 255 259 248 238 245 276 270 112 229 346 286 254 265 256 267 258 224 277 338 345 349 350 343
337 330 35 334 330 273 115 273 280 359 148 240 256 229 267 249 299 331 287 138 220 210 187 288 281 250 306 253 210 258 105 231 195 268 270 258 270 272 313 337 343 336 338 342 339
322 306 29 334 254 64 104 266 286 243 219 230 263 262 240 276 236 243 266 210 216 159 170 173 233 206 265 225 279 204 225 206 301 276 286 287 275 310 328 348 325 322 331 335 338
345 305 2 321 23 42 175 216 324 241 213 234 254 248 237 195 229 236 246 239 169 185 229 190 256 268 277 165 279 265 258 243 242 198 238 288 274 308 238 311 325 315 325 336 340
30 282 10 306 226 191 174 250 256 219 221 194 232 224 209 220 250 224 246 244 233 236 234 183 213 280 235 179 174 216 198 197 119 256 260 283 271 161 268 330 309 307 312 331 332
129 287 345 32 33 290 320 257 260 226 250 221 247 205 201 239 224 256 239 261 220 226 239 197 224 233 264 286 86 222 212 214 219 255 273 260 269 283 302 318 317 308 308 328 319
155 230 293 246 205 196 167 189 254 270 230 226 237 225 223 249 243 238 257 262 261 254 238 232 257 241 251 266 253 254 246 225 222 245 254 270 285 288 301 306 302 311 300 311 317
153 171 157 177 182 193 199 217 231 227 227 228 242 244 231 237 249 273 254 230 240 197 218 213 261 270 260 263 260 251 249 247 240 252 256 258 269 280 285 274 283 299 311 309 320
138 80 120 188 176 181 216 216 217 182 235 242 243 261 255 257 276 282 277 266 259 239 227 230 247 253 271 277 280 258 250 249 251 248 241 246 249 253 262 265 282 297 307 307 312